TimeEDT,TemperatureF,Dew PointF,Humidity,Sea Level PressureIn,VisibilityMPH,Wind Direction,Wind SpeedMPH,Gust SpeedMPH,PrecipitationIn,Events,Conditions,WindDirDegrees,DateUTC
12:52 AM,72.0,69.1,91,29.63,10.0,SSW,5.8,-,N/A,,Mostly Cloudy,200,2013-06-28 04:52:00
1:52 AM,71.1,69.1,93,29.60,10.0,South,6.9,-,N/A,,Scattered Clouds,190,2013-06-28 05:52:00
2:52 AM,71.1,68.0,90,29.59,10.0,SSW,8.1,-,N/A,,Partly Cloudy,210,2013-06-28 06:52:00
3:52 AM,70.0,66.9,90,29.58,10.0,Calm,Calm,-,N/A,,Mostly Cloudy,0,2013-06-28 07:52:00
4:52 AM,69.1,66.0,90,29.59,10.0,Calm,Calm,-,N/A,,Mostly Cloudy,0,2013-06-28 08:52:00
5:52 AM,69.1,66.0,90,29.60,10.0,SSE,3.5,-,N/A,,Mostly Cloudy,160,2013-06-28 09:52:00
6:52 AM,70.0,66.9,90,29.61,10.0,Calm,Calm,-,N/A,,Mostly Cloudy,0,2013-06-28 10:52:00
7:52 AM,73.9,68.0,82,29.60,10.0,South,4.6,-,N/A,,Scattered Clouds,180,2013-06-28 11:52:00
8:52 AM,77.0,68.0,74,29.60,10.0,Calm,Calm,-,N/A,,Mostly Cloudy,0,2013-06-28 12:52:00
9:52 AM,80.1,69.1,69,29.58,10.0,Calm,Calm,-,N/A,,Mostly Cloudy,0,2013-06-28 13:52:00
10:52 AM,81.0,68.0,65,29.59,10.0,SSW,5.8,-,N/A,,Mostly Cloudy,210,2013-06-28 14:52:00
11:52 AM,82.9,66.9,58,29.57,10.0,SSW,9.2,-,N/A,,Mostly Cloudy,200,2013-06-28 15:52:00
12:52 PM,84.9,68.0,57,29.56,10.0,SSW,11.5,-,N/A,,Mostly Cloudy,210,2013-06-28 16:52:00
1:52 PM,87.1,66.9,51,29.54,10.0,Variable,6.9,-,N/A,,Mostly Cloudy,0,2013-06-28 17:52:00
2:52 PM,81.0,69.1,67,29.52,10.0,SW,5.8,-,0.00,Rain,Light Rain,230,2013-06-28 18:52:00
3:52 PM,77.0,69.1,76,29.51,10.0,South,5.8,-,0.04,,Mostly Cloudy,190,2013-06-28 19:52:00
4:33 PM,75.2,69.8,83,29.53,3.0,South,6.9,-,0.05,Rain-Thunderstorm,Thunderstorms and Rain,170,2013-06-28 20:33:00
4:52 PM,73.9,70.0,87,29.51,10.0,South,5.8,-,0.05,,Mostly Cloudy,180,2013-06-28 20:52:00
5:33 PM,73.4,69.8,88,29.52,1.5,South,10.4,-,0.07,Rain,Rain,190,2013-06-28 21:33:00
5:41 PM,73.4,71.6,94,29.51,3.0,South,8.1,-,0.10,Rain,Light Rain,170,2013-06-28 21:41:00
5:52 PM,73.9,71.1,91,29.51,10.0,South,4.6,-,0.10,Rain,Light Rain,180,2013-06-28 21:52:00
6:52 PM,75.0,72.0,90,29.52,10.0,South,4.6,-,0.00,,Mostly Cloudy,180,2013-06-28 22:52:00
7:52 PM,75.0,71.1,87,29.53,10.0,Calm,Calm,-,N/A,,Mostly Cloudy,0,2013-06-28 23:52:00
8:52 PM,73.0,70.0,90,29.54,10.0,Calm,Calm,-,N/A,,Mostly Cloudy,0,2013-06-29 00:52:00
9:52 PM,72.0,66.9,84,29.57,10.0,South,8.1,-,N/A,,Mostly Cloudy,170,2013-06-29 01:52:00
10:52 PM,71.1,68.0,90,29.57,10.0,Calm,Calm,-,N/A,,Overcast,0,2013-06-29 02:52:00
11:52 PM,70.0,68.0,93,29.57,10.0,SSE,4.6,-,N/A,,Mostly Cloudy,160,2013-06-29 03:52:00